Погода в Туксе

Россия / Республика Карелия     61°00′31″N   32°50′47″E
темп.,
°C
ветер,
м/с
пор.,
м/с
влажн.,
%
обл.,
%
осадки,
мм/ч
давл.,
гПа
погр.,
м
19 сентября, вс
вс1900:00+4в3679100 0.0 1030256
03:00+3в358099 0.0 1030171
06:00+3в3579100 0.0 1031149
09:00+6в356699 0.0 1031328
12:00+8в5756100 0.0 10301413
15:00+10всв575016 0.0 10291452
18:00+9всв58575 0.0 1029865
21:00+5св412765 0.0 1030366
20 сентября, пн
пн2000:00+4всв511775 0.0 1031422
03:00+4всв512835 0.0 1031452
06:00+3всв5118670 0.0 1031506
09:00+5в41070100 0.0 1031889
12:00+8в6953100 0.0 10301473
15:00+9всв685020 0.0 10291534
18:00+7в69585 0.0 10291057
21:00+4в511725 0.0 1029538
21 сентября, вт
вт2100:00+3в410785 0.0 1029329
03:00+2всв498175 0.0 1028265
06:00+2всв4108894 0.0 1027294
09:00+5всв510779 0.0 1026464
12:00+8в565667 0.0 1025949
15:00+10в565099 0.0 10231147
18:00+8в4760100 0.0 1023560
21:00+5св377673 0.0 1023202
22 сентября, ср
ср2200:00+4всв3680100 0.0 1023142
03:00+4св358389 0.0 1023124
06:00+3всв36905 0.0 1022149
09:00+6всв47780 0.0 1022276
12:00+10в35583 0.0 1021875
15:00+12всв24535 0.0 1020925
18:00+10в12655 0.0 101926
21:00+7в377286 0.0 1018189
23 сентября, чт
чт2300:00+7вюв2472100 0.0 1016159
03:00+5вюв348011 0.0 1014119
06:00+4вюв35853 0.0 1013119
09:00+6вюв4674100 0.0 1011214
12:00+7вюв4773100 0.0 1008323
15:00+8вюв4778100 0.1 1006491
18:00+7юв51086100 0.4 1003646
21:00+6юв5794100 2.3 1001906